Regional Weather Roundup
Issued by NWS

Home | Current Version | Previous Version | Graphics & Text | Print | Product List | Glossary On
Versions: 1 2 3 4 5 6 7 8 9 10 11 12 13 14 15 16 17 18 19 20 21 22 23 24 25 26 27
000
ASUS45 KCYS 222310
RWRWY

WYOMING REGIONAL WEATHER ROUNDUP
NATIONAL WEATHER SERVICE CHEYENNE WY
500 PM MDT TUE AUG 22 2017

NOTE:  "FAIR" INDICATES FEW OR NO CLOUDS BELOW 12,000 FEET
WITH NO SIGNIFICANT WEATHER AND/OR OBSTRUCTIONS TO VISIBILITY.

WYZ001-230000-
YELLOWSTONE NATIONAL PARK

CITY           SKY/WX    TMP DP  RH WIND       PRES   REMARKS
LK YELLOWSTONE   N/A     74  26  16 MISG      30.38S
W YELLOWSTONE  NOT AVBL

$$
WYZ002>013-054>058-071-098>099-230000-
NORTHERN WYOMING

CITY           SKY/WX    TMP DP  RH WIND       PRES   REMARKS
JACKSON        FAIR      83  24  11 W10G18    30.27F
CODY           FAIR      85  35  16 E10       30.17F
GREYBULL       FAIR      91  29  11 NW9       30.07F
WORLAND        FAIR      90  34  13 N5        30.09F
SHERIDAN       FAIR      87  36  16 E5        30.13F
BUFFALO        FAIR      86  31  13 NE10      30.20F
GILLETTE       FAIR      87  30  13 VRB7      30.14F
HULETT         FAIR      82  41  23 E15       30.17F
NEWCASTLE      FAIR      81  43  26 CALM      30.16F

$$
WYZ014>020-022>026-101>103-230000-
CENTRAL WYOMING

CITY           SKY/WX    TMP DP  RH WIND       PRES   REMARKS
BIG PINEY      FAIR      83  23  11 NW13G20   30.32F
PINEDALE       FAIR      81  23  12 NW10G22   30.32F
DUBOIS         FAIR      81  21  11 N15       30.30S
LANDER           N/A    N/A N/A N/A MISG      30.20F
RIVERTON       FAIR      84  27  12 E7        30.18F
CASPER         FAIR      85  34  16 CALM      30.18F
DOUGLAS        FAIR      84  40  21 NW3       30.18F

$$
WYZ021-027>030-104>119-230000-
SOUTHERN WYOMING

CITY           SKY/WX    TMP DP  RH WIND       PRES   REMARKS
EVANSTON       FAIR      76  38  25 SW12      30.35S
KEMMERER         N/A     82  27  13 N17G23    30.34F
FORT BRIDGER   FAIR      82  30  15 S9        30.35F
ROCK SPRINGS   FAIR      83  24  11 SW8G18    30.29F
DIXON          FAIR      86  28  12 SW10      30.29F
RAWLINS        NOT AVBL
SARATOGA       FAIR      82  27  13 NW13G18   30.32S
LARAMIE        FAIR      81  25  12 N15       30.30F
CHEYENNE       FAIR      77  53  43 S16G24    30.27F
TORRINGTON     FAIR      85  50  29 SE14G23   30.13F
PINE BLUFFS    FAIR      81  46  30 SE14      30.23F

$$




USA.gov is the U.S. government's official web portal to all federal, state and local government web resources and services.